Time,TemperatureF,DewpointF,PressureIn,WindDirection,WindDirectionDegrees,WindSpeedMPH,WindSpeedGustMPH,Humidity,HourlyPrecipIn,Conditions,Clouds,dailyrainin,SolarRadiationWatts/m^2,SoftwareType,DateUTC
2013-02-12 00:01:00,62.0,59.0,-100.00,NW,324,2.0,5.0,89,0.00,,,0.00,0.000000,,2013-02-12 05:01:00,
2013-02-12 00:32:00,62.0,59.0,-100.00,NNW,329,1.0,3.0,91,0.00,,,0.00,0.000000,,2013-02-12 05:32:00,
2013-02-12 00:42:00,62.0,59.0,-100.00,NNW,329,1.0,3.0,91,0.00,,,0.00,0.000000,,2013-02-12 05:42:00,
2013-02-12 00:52:00,62.0,59.0,-100.00,NNW,329,1.0,3.0,91,0.00,,,0.00,0.000000,,2013-02-12 05:52:00,
2013-02-12 01:02:00,62.0,59.0,-100.00,NNW,329,1.0,3.0,91,0.00,,,0.00,0.000000,,2013-02-12 06:02:00,
2013-02-12 01:32:00,62.0,59.0,-100.00,NE,52,1.0,4.0,90,0.00,,,0.00,0.000000,,2013-02-12 06:32:00,
2013-02-12 01:42:00,62.0,59.0,-100.00,NE,52,1.0,4.0,90,0.00,,,0.00,0.000000,,2013-02-12 06:42:00,
2013-02-12 01:52:00,62.0,59.0,-100.00,NE,52,1.0,4.0,90,0.00,,,0.00,0.000000,,2013-02-12 06:52:00,
2013-02-12 02:02:00,62.0,59.0,-100.00,NE,52,1.0,4.0,90,0.00,,,0.00,0.000000,,2013-02-12 07:02:00,
2013-02-12 02:32:00,62.0,59.0,-100.00,NW,312,3.0,6.0,90,0.00,,,0.00,0.000000,,2013-02-12 07:32:00,
2013-02-12 02:42:00,62.0,59.0,-100.00,NW,312,3.0,6.0,90,0.00,,,0.00,0.000000,,2013-02-12 07:42:00,
2013-02-12 02:52:00,62.0,59.0,-100.00,NW,312,3.0,6.0,90,0.00,,,0.00,0.000000,,2013-02-12 07:52:00,
2013-02-12 03:01:00,62.0,59.0,-100.00,NW,312,3.0,6.0,90,0.00,,,0.00,0.000000,,2013-02-12 08:01:00,
2013-02-12 03:32:00,62.0,59.0,-100.00,NW,320,1.0,5.0,90,0.00,,,0.00,0.000000,,2013-02-12 08:32:00,
2013-02-12 03:42:00,62.0,59.0,-100.00,NW,320,1.0,5.0,90,0.00,,,0.00,0.000000,,2013-02-12 08:42:00,
2013-02-12 03:52:00,62.0,59.0,-100.00,NW,320,1.0,5.0,90,0.00,,,0.00,0.000000,,2013-02-12 08:52:00,
2013-02-12 04:02:00,62.0,59.0,-100.00,NW,320,1.0,5.0,90,0.00,,,0.00,0.000000,,2013-02-12 09:02:00,
2013-02-12 04:32:00,61.0,58.0,-100.00,NNE,18,2.0,3.0,91,0.00,,,0.00,0.000000,,2013-02-12 09:32:00,
2013-02-12 04:42:00,61.0,58.0,-100.00,NNE,18,2.0,3.0,91,0.00,,,0.00,0.000000,,2013-02-12 09:42:00,
2013-02-12 04:52:00,61.0,58.0,-100.00,NNE,18,2.0,3.0,91,0.00,,,0.00,0.000000,,2013-02-12 09:52:00,
2013-02-12 05:01:00,61.0,58.0,-100.00,NNE,18,2.0,3.0,91,0.00,,,0.00,0.000000,,2013-02-12 10:01:00,
2013-02-12 05:22:00,61.0,59.0,-100.00,ESE,113,2.0,5.0,93,0.00,,,0.00,0.000000,,2013-02-12 10:22:00,
2013-02-12 05:32:00,61.0,59.0,-100.00,ESE,113,2.0,5.0,93,0.00,,,0.00,0.000000,,2013-02-12 10:32:00,
2013-02-12 05:43:00,61.0,59.0,-100.00,ESE,113,2.0,5.0,93,0.00,,,0.00,0.000000,,2013-02-12 10:43:00,
2013-02-12 05:52:00,61.0,59.0,-100.00,ESE,113,2.0,5.0,93,0.00,,,0.00,0.000000,,2013-02-12 10:52:00,
2013-02-12 06:01:00,61.0,59.0,-100.00,ESE,113,2.0,5.0,93,0.00,,,0.00,0.000000,,2013-02-12 11:01:00,
2013-02-12 06:32:00,61.0,59.0,-100.00,South,172,2.0,5.0,94,0.00,,,0.00,0.000000,,2013-02-12 11:32:00,
2013-02-12 06:42:00,61.0,59.0,-100.00,South,172,2.0,5.0,94,0.00,,,0.00,0.000000,,2013-02-12 11:42:00,
2013-02-12 06:53:00,61.0,59.0,-100.00,South,172,2.0,5.0,94,0.00,,,0.00,0.000000,,2013-02-12 11:53:00,
2013-02-12 07:02:00,61.0,59.0,-100.00,South,172,2.0,5.0,94,0.00,,,0.00,0.000000,,2013-02-12 12:02:00,
2013-02-12 07:32:00,61.0,58.0,-100.00,SW,221,2.0,6.0,91,0.00,,,0.00,0.000000,,2013-02-12 12:32:00,
2013-02-12 07:42:00,61.0,58.0,-100.00,SW,221,2.0,6.0,91,0.00,,,0.00,0.000000,,2013-02-12 12:42:00,
2013-02-12 07:53:00,61.0,58.0,-100.00,SW,221,2.0,6.0,91,0.00,,,0.00,0.000000,,2013-02-12 12:53:00,
2013-02-12 08:02:00,61.0,58.0,-100.00,SW,221,2.0,6.0,91,0.00,,,0.00,0.000000,,2013-02-12 13:02:00,
2013-02-12 08:22:00,61.0,58.0,-100.00,NE,38,1.0,4.0,91,0.00,,,0.00,4.000000,,2013-02-12 13:22:00,
2013-02-12 08:32:00,61.0,58.0,-100.00,NE,38,1.0,4.0,91,0.00,,,0.00,4.000000,,2013-02-12 13:32:00,
2013-02-12 08:42:00,61.0,58.0,-100.00,NE,38,1.0,4.0,91,0.00,,,0.00,4.000000,,2013-02-12 13:42:00,
2013-02-12 08:52:00,61.0,58.0,-100.00,NE,38,1.0,4.0,91,0.00,,,0.00,4.000000,,2013-02-12 13:52:00,
2013-02-12 09:01:00,61.0,58.0,-100.00,NE,38,1.0,4.0,91,0.00,,,0.00,4.000000,,2013-02-12 14:01:00,
2013-02-12 09:32:00,61.0,59.0,-100.00,ENE,67,2.0,4.0,94,0.01,,,0.01,31.000000,,2013-02-12 14:32:00,
2013-02-12 09:42:00,61.0,59.0,-100.00,ENE,67,2.0,4.0,94,0.01,,,0.01,31.000000,,2013-02-12 14:42:00,
2013-02-12 09:52:00,61.0,59.0,-100.00,ENE,67,2.0,4.0,94,0.01,,,0.01,31.000000,,2013-02-12 14:52:00,
2013-02-12 10:02:00,61.0,59.0,-100.00,ENE,67,2.0,4.0,94,0.01,,,0.01,31.000000,,2013-02-12 15:02:00,
2013-02-12 10:32:00,61.0,59.0,-100.00,NE,44,3.0,6.0,94,0.01,,,0.02,42.000000,,2013-02-12 15:32:00,
2013-02-12 10:42:00,61.0,59.0,-100.00,NE,44,3.0,6.0,94,0.01,,,0.02,42.000000,,2013-02-12 15:42:00,
2013-02-12 10:52:00,61.0,59.0,-100.00,NE,44,3.0,6.0,94,0.01,,,0.02,42.000000,,2013-02-12 15:52:00,
2013-02-12 11:01:00,61.0,59.0,-100.00,NE,44,3.0,6.0,94,0.01,,,0.02,42.000000,,2013-02-12 16:01:00,
2013-02-12 11:22:00,62.0,61.0,-100.00,NE,44,3.0,7.0,95,0.05,,,0.07,67.000000,,2013-02-12 16:22:00,
2013-02-12 11:32:00,62.0,61.0,-100.00,NE,44,3.0,7.0,95,0.05,,,0.07,67.000000,,2013-02-12 16:32:00,
2013-02-12 11:42:00,62.0,61.0,-100.00,NE,44,3.0,7.0,95,0.05,,,0.07,67.000000,,2013-02-12 16:42:00,
2013-02-12 11:52:00,62.0,61.0,-100.00,NE,44,3.0,7.0,95,0.05,,,0.07,67.000000,,2013-02-12 16:52:00,
2013-02-12 12:01:00,62.0,61.0,-100.00,NE,44,3.0,7.0,95,0.05,,,0.07,67.000000,,2013-02-12 17:01:00,
2013-02-12 12:32:00,62.0,60.0,-100.00,ENE,60,3.0,5.0,94,0.02,,,0.09,86.000000,,2013-02-12 17:32:00,
2013-02-12 12:42:00,62.0,60.0,-100.00,ENE,60,3.0,5.0,94,0.02,,,0.09,86.000000,,2013-02-12 17:42:00,
2013-02-12 12:52:00,62.0,60.0,-100.00,ENE,60,3.0,5.0,94,0.02,,,0.09,86.000000,,2013-02-12 17:52:00,
2013-02-12 13:02:00,62.0,60.0,-100.00,ENE,60,3.0,5.0,94,0.02,,,0.09,86.000000,,2013-02-12 18:02:00,
2013-02-12 13:32:00,63.0,61.0,-100.00,ENE,59,2.0,6.0,93,0.03,,,0.12,72.000000,,2013-02-12 18:32:00,
2013-02-12 13:42:00,63.0,61.0,-100.00,ENE,59,2.0,6.0,93,0.03,,,0.12,72.000000,,2013-02-12 18:42:00,
2013-02-12 13:52:00,63.0,61.0,-100.00,ENE,59,2.0,6.0,93,0.03,,,0.12,72.000000,,2013-02-12 18:52:00,
2013-02-12 14:02:00,63.0,61.0,-100.00,ENE,59,2.0,6.0,93,0.03,,,0.12,72.000000,,2013-02-12 19:02:00,
2013-02-12 14:32:00,63.0,61.0,-100.00,East,87,5.0,10.0,93,0.02,,,0.14,121.000000,,2013-02-12 19:32:00,
2013-02-12 14:42:00,63.0,61.0,-100.00,East,87,5.0,10.0,93,0.02,,,0.14,121.000000,,2013-02-12 19:42:00,
2013-02-12 14:52:00,63.0,61.0,-100.00,East,87,5.0,10.0,93,0.02,,,0.14,121.000000,,2013-02-12 19:52:00,
2013-02-12 15:01:00,63.0,61.0,-100.00,East,87,5.0,10.0,93,0.02,,,0.14,121.000000,,2013-02-12 20:01:00,
2013-02-12 16:32:00,62.0,59.0,-100.00,East,99,4.0,10.0,89,-99.99,,,0.14,120.000000,,2013-02-12 21:32:00,
2013-02-12 16:42:00,62.0,59.0,-100.00,East,99,4.0,10.0,89,-99.99,,,0.14,120.000000,,2013-02-12 21:42:00,
2013-02-12 16:52:00,62.0,59.0,-100.00,East,99,4.0,10.0,89,-99.99,,,0.14,120.000000,,2013-02-12 21:52:00,
2013-02-12 17:01:00,62.0,59.0,-100.00,East,99,4.0,10.0,89,-99.99,,,0.14,120.000000,,2013-02-12 22:01:00,
2013-02-12 17:22:00,62.0,58.0,-100.00,ENE,69,4.0,11.0,88,0.00,,,0.14,80.000000,,2013-02-12 22:22:00,
2013-02-12 17:32:00,62.0,58.0,-100.00,ENE,69,4.0,11.0,88,0.00,,,0.14,80.000000,,2013-02-12 22:32:00,
2013-02-12 17:42:00,62.0,58.0,-100.00,ENE,69,4.0,11.0,88,0.00,,,0.14,80.000000,,2013-02-12 22:42:00,
2013-02-12 17:52:00,62.0,58.0,-100.00,ENE,69,4.0,11.0,88,0.00,,,0.14,80.000000,,2013-02-12 22:52:00,
2013-02-12 18:01:00,62.0,58.0,-100.00,ENE,69,4.0,11.0,88,0.00,,,0.14,80.000000,,2013-02-12 23:01:00,
2013-02-12 18:32:00,60.0,57.0,-100.00,East,89,4.0,8.0,91,0.00,,,0.14,23.000000,,2013-02-12 23:32:00,
2013-02-12 18:42:00,60.0,57.0,-100.00,East,89,4.0,8.0,91,0.00,,,0.14,23.000000,,2013-02-12 23:42:00,
2013-02-12 18:52:00,60.0,57.0,-100.00,East,89,4.0,8.0,91,0.00,,,0.14,23.000000,,2013-02-12 23:52:00,
2013-02-12 19:02:00,60.0,57.0,-100.00,East,89,4.0,8.0,91,0.00,,,0.14,23.000000,,2013-02-13 00:02:00,
2013-02-12 19:32:00,59.0,57.0,-100.00,East,96,4.0,8.0,93,0.00,,,0.14,0.000000,,2013-02-13 00:32:00,
2013-02-12 19:42:00,59.0,57.0,-100.00,East,96,4.0,8.0,93,0.00,,,0.14,0.000000,,2013-02-13 00:42:00,
2013-02-12 19:52:00,59.0,57.0,-100.00,East,96,4.0,8.0,93,0.00,,,0.14,0.000000,,2013-02-13 00:52:00,
2013-02-12 20:01:00,59.0,57.0,-100.00,East,96,4.0,8.0,93,0.00,,,0.14,0.000000,,2013-02-13 01:01:00,
2013-02-12 20:42:00,57.0,56.0,-100.00,East,85,4.0,10.0,95,0.00,,,-99.99,0.000000,,2013-02-13 01:42:00,
2013-02-12 20:52:00,57.0,56.0,-100.00,East,85,4.0,10.0,95,0.00,,,-99.99,0.000000,,2013-02-13 01:52:00,
2013-02-12 21:01:00,57.0,56.0,-100.00,East,85,4.0,10.0,95,0.00,,,-99.99,0.000000,,2013-02-13 02:01:00,
2013-02-12 21:42:00,57.0,56.0,-100.00,ESE,121,2.0,7.0,95,0.00,,,0.14,0.000000,,2013-02-13 02:42:00,
2013-02-12 21:52:00,57.0,56.0,-100.00,ESE,121,2.0,7.0,95,0.00,,,0.14,0.000000,,2013-02-13 02:52:00,
2013-02-12 22:02:00,57.0,56.0,-100.00,ESE,121,2.0,7.0,95,0.00,,,0.14,0.000000,,2013-02-13 03:02:00,
2013-02-12 22:32:00,59.0,58.0,-100.00,East,95,2.0,7.0,96,0.00,,,0.14,0.000000,,2013-02-13 03:32:00,
2013-02-12 22:42:00,59.0,58.0,-100.00,East,95,2.0,7.0,96,0.00,,,0.14,0.000000,,2013-02-13 03:42:00,
2013-02-12 22:52:00,59.0,58.0,-100.00,East,95,2.0,7.0,96,0.00,,,0.14,0.000000,,2013-02-13 03:52:00,
2013-02-12 23:01:00,59.0,58.0,-100.00,East,95,2.0,7.0,96,0.00,,,0.14,0.000000,,2013-02-13 04:01:00,
2013-02-12 23:32:00,60.0,59.0,-100.00,NNE,22,1.0,5.0,96,0.00,,,0.14,0.000000,,2013-02-13 04:32:00,
2013-02-12 23:42:00,60.0,59.0,-100.00,NNE,22,1.0,5.0,96,0.00,,,0.14,0.000000,,2013-02-13 04:42:00,
2013-02-12 23:52:00,60.0,59.0,-100.00,NNE,22,1.0,5.0,96,0.00,,,0.14,0.000000,,2013-02-13 04:52:00,